Hourly Weather Roundup
Issued by NWS Central Illinois

Home | Current Version | Previous Version | Text Only | Print | Product List | Glossary Off
Versions: 1 2 3 4 5 6 7 8 9 10 11 12 13 14 15 16 17 18 19 20 21 22 23 24 25 26 27 28 29 30 31 32 33 34 35 36 37 38 39 40 41 42 43 44 45 46 47 48 49 50

000
NZUS43 KILX 061910
HWRILX

AREA WEATHER ROUNDUP
NATIONAL WEATHER SERVICE, LINCOLN IL
200 PM CDT WED MAY 06 2015


CITY           SKY/WX    TMP DP  RH WIND       PRES   REMARKS
BLOOMINGTON    MOSUNNY   82  54  38 S21       30.11F HX  81
CHAMPAIGN      PTSUNNY   85  46  25 S12G21    30.12F HX  82
DANVILLE       MOSUNNY   85  49  28 SW12      30.10F HX  83
DECATUR        PTSUNNY   85  51  31 S18G24    30.10F HX  83
EFFINGHAM      MOSUNNY   85  45  25 S8        30.13F HX  82
FLORA          SUNNY     85  49  28 S10G18    30.12F HX  82
GALESBURG      MOSUNNY   80  54  40 S16G23    30.06F HX  80
JACKSONVILLE   PTSUNNY   85  51  31 S15G21    30.07F HX  83
LACON          MOSUNNY   81  52  36 S8G21     30.07F HX  80
LAWRENCEVILLE  PTSUNNY   86  53  32 S9        30.13F HX  84
LITCHFIELD     MOSUNNY   83  49  29 S18G32    30.10F HX  82
$$


CITY           SKY/WX    TMP DP  RH WIND       PRES   REMARKS
LINCOLN        PTSUNNY   83  49  30 S18       30.06F HX  82
MACOMB         MOSUNNY   82  54  37 S15G24    30.07F HX  81
MATTOON        MOSUNNY   82  51  34 S13       30.12F HX  81
MT CARMEL AP   SUNNY     88  41  19 S9G16     30.13F HX  84
OLNEY-NOBLE AP PTSUNNY   82  52  34 S8        30.12F HX  81
PARIS          MOSUNNY   86  50  28 S10G23    30.14F HX  84
PEORIA         PTSUNNY   84  51  31 S18G25    30.07F HX  82
PONTIAC        MOSUNNY   83  55  37 SW14G22   30.11F HX  82
RANTOUL        MOSUNNY   86  49  27 SW8G23    30.11F HX  84
ROBINSON       MOSUNNY   87  48  26 S13       30.14F HX  84
SPRINGFIELD    PTSUNNY   86  52  30 S17G30    30.08F HX  84
TAYLORVILLE    PTSUNNY   82  52  34 S16       30.10S HX  81
$$

...REGIONAL REPORTS...


CITY           SKY/WX    TMP DP  RH WIND       PRES   REMARKS
CHICAGO O`HARE MOSUNNY   74  58  57 NE12      30.12F
KANKAKEE       MOSUNNY   79  61  53 SW5       30.13F HX  80
MOLINE         MOSUNNY   83  54  36 S14G26    30.03F HX  82
MOUNT VERNON   PTSUNNY  N/A N/A N/A S13       30.12F
PITTSFIELD     MOSUNNY   84  52  32 S17G26    30.06F HX  82
QUINCY         MOSUNNY   81  55  40 S18G30    30.03F HX  81
ROCKFORD       PTSUNNY   77  63  61 SE10      30.11F
$$


CITY           SKY/WX    TMP DP  RH WIND       PRES   REMARKS
BURLINGTON     PTSUNNY   81  58  45 S16       30.02F HX  81
CEDAR RAPIDS   MOSUNNY   81  58  45 SE22G35   29.99F HX  81
DES MOINES     CLOUDY    76  58  53 S20       29.93F
KIRKSVILLE     LGT RAIN  71  59  65 SW7       30.03R
OTTUMWA        CLOUDY    78  59  51 S22G30    29.97S
ST LOUIS       MOSUNNY   86  53  32 S12G24    30.07F HX  84
$$


CITY           SKY/WX    TMP DP  RH WIND       PRES   REMARKS
TERRE HAUTE    MOSUNNY   84  54  35 S12G18    30.14F HX  83
EVANSVILLE     MOSUNNY   85  54  34 S8        30.14F HX  83
INDIANAPOLIS   PTSUNNY   80  53  39 S7        30.15F HX  80
LAFAYETTE      PTSUNNY   82  49  31 CALM      30.13F HX  81
MADISON        PTSUNNY   70  61  73 E8        30.11F
MILWAUKEE      PTSUNNY   56  51  84 E9        30.18F HAZE
$$




USA.gov is the U.S. government's official web portal to all federal, state and local government web resources and services.